Lid_Strength_Index
3 3 3 3 3 3 3 3 4 4 4 4 4 4 3 3 3 3 3 3 3 3 4 4 3 3 2 4 4 -0 -1 -1 -0 0 2 3 4 4 6 6 5 6 6 5 4 4 5
3 4 4 4 4 4 4 4 3 3 3 3 4 4 4 3 3 3 3 3 4 4 4 4 3 3 3 6 1 1 1 1 0 1 2 2 3 3 5 5 6 5 5 5 4 5 5
4 4 4 4 4 4 4 4 4 4 4 4 4 4 4 4 4 4 4 4 4 4 4 3 2 2 5 5 1 -0 0 1 1 1 2 1 2 3 4 6 4 5 7 6 5 5 5
4 4 4 4 5 5 5 5 5 5 5 5 4 4 4 4 4 5 4 4 4 4 3 2 2 2 6 2 1 2 -0 1 0 0 1 1 1 3 4 4 5 7 7 9 6 5 5
4 4 4 4 4 4 4 4 5 5 5 5 5 5 4 5 4 4 5 5 4 3 2 1 2 3 6 3 4 3 1 2 1 1 1 1 2 4 4 7 8 7 11 9 8 5 5
4 4 4 4 4 4 5 4 4 4 4 5 5 5 5 5 5 5 5 4 3 4 2 1 2 5 5 6 4 3 2 1 2 2 3 3 4 6 6 8 12 11 12 11 12 6 6
4 5 5 5 5 5 5 5 5 5 4 4 5 5 5 5 5 5 4 3 3 4 4 6 5 6 5 4 2 3 2 2 2 3 6 5 7 9 7 7 8 10 12 13 11 7 6
5 5 5 5 5 4 5 5 5 5 5 5 5 5 5 5 5 5 5 4 4 4 6 4 5 5 4 4 5 3 2 3 4 6 5 6 8 6 6 8 10 11 12 12 9 6 6
5 5 5 5 5 5 5 5 5 5 5 5 5 4 5 5 5 5 4 4 2 3 6 5 4 5 5 4 6 4 3 3 5 6 6 7 7 5 7 8 9 11 13 13 11 7 6
5 5 5 5 4 5 5 5 5 5 5 5 5 5 5 5 6 3 5 3 3 3 8 7 6 5 5 5 7 3 2 3 4 7 6 6 5 6 7 8 8 11 8 9 9 12 11
5 5 5 4 4 4 5 4 4 5 5 5 5 5 5 5 4 5 3 2 3 4 12 6 5 3 4 6 5 6 2 3 5 6 6 7 6 7 8 8 7 9 7 8 9 10 9
5 5 5 5 5 5 5 5 5 4 5 5 5 5 4 3 3 3 2 2 4 9 12 7 5 6 6 6 6 5 5 2 3 5 5 6 4 5 6 6 6 7 8 10 8 10 14
4 4 5 4 4 5 5 5 4 4 5 5 5 5 5 3 3 2 3 4 9 11 6 7 6 5 6 7 7 6 7 6 7 9 9 7 7 5 5 9 7 8 10 15 17 15 15
5 5 4 4 4 4 4 4 5 5 5 5 5 5 4 3 1 2 3 7 10 8 7 5 6 5 7 6 7 7 7 7 5 6 8 10 11 7 5 8 9 9 10 15 20 18 13
5 5 4 4 4 5 4 4 4 5 5 5 6 1 1 1 1 2 5 9 8 7 6 6 6 7 7 6 6 7 7 7 6 5 9 9 9 5 6 6 7 11 12 11 16 15 16
5 5 4 4 4 5 4 4 4 4 5 5 3 2 2 1 1 3 7 9 6 5 6 6 8 7 8 7 7 7 7 6 6 5 4 7 10 6 6 6 7 10 8 15 16 20 18
5 5 4 4 5 4 4 4 4 5 5 5 2 4 2 0 2 5 8 7 6 4 5 7 7 7 7 8 7 7 7 6 5 5 5 6 8 8 7 9 9 10 12 11 13 15 19
5 5 5 5 5 5 4 4 4 5 6 4 2 6 2 2 6 5 7 5 7 5 4 6 6 6 7 7 7 7 7 6 4 5 6 5 7 10 12 7 6 7 8 10 12 15 16
5 5 4 4 5 4 4 4 5 5 6 4 4 3 1 3 8 6 5 5 5 6 6 6 7 5 5 6 8 6 6 5 4 5 6 5 8 12 12 10 7 8 8 8 9 10 14
5 5 4 4 4 4 4 4 4 5 5 3 4 6 4 3 4 5 6 6 6 4 5 6 6 5 6 6 5 7 6 6 5 5 5 5 7 8 13 11 8 9 9 8 9 12 13
5 5 4 4 4 4 4 4 4 5 5 3 3 5 4 7 5 5 5 6 7 7 5 5 6 6 6 7 7 7 7 6 6 4 5 5 8 7 7 9 9 8 9 8 10 9 11
5 4 4 4 4 4 4 4 4 5 5 2 5 5 4 5 5 6 6 6 7 6 6 7 7 6 5 7 6 7 6 6 6 5 5 5 8 7 9 8 11 11 9 8 8 9 8
5 5 4 4 4 4 4 4 4 5 5 4 3 3 4 6 5 6 6 6 6 6 5 5 6 6 7 6 5 4 4 4 5 6 6 6 7 9 10 8 8 13 9 8 8 7 8
5 5 4 4 4 4 4 4 4 4 5 3 3 4 5 7 6 6 6 6 6 6 7 5 5 6 4 3 3 4 4 5 5 5 5 6 7 7 10 9 13 7 5 6 6 6 6
5 4 4 4 4 4 4 4 4 4 4 3 2 4 5 8 6 6 6 6 5 5 6 5 5 4 3 4 7 8 7 7 7 6 5 5 7 8 10 11 9 7 6 6 7 7 5
4 4 4 4 4 4 4 4 3 4 4 3 3 3 4 6 6 5 6 5 7 6 6 5 3 3 4 5 7 11 11 8 8 7 5 5 5 8 9 12 14 8 6 4 5 9 5
4 3 3 3 4 4 3 3 3 3 4 4 4 3 5 7 4 4 6 6 5 6 7 5 5 5 4 7 9 10 9 7 9 9 8 8 7 9 9 10 8 6 5 4 10 9 4
4 3 3 3 3 3 3 3 3 3 3 4 4 3 5 7 5 4 3 5 5 5 7 5 6 5 6 8 9 8 9 7 8 7 7 8 9 9 9 10 11 4 5 7 6 5 4
3 3 2 3 3 2 2 3 3 3 3 3 6 3 3 7 6 3 3 3 3 3 4 4 6 6 5 7 7 7 9 7 7 9 5 9 7 8 7 7 5 4 4 4 4 4 4